Le nostre stazioni meteo in Italia

Pubblicità
Il mio iltempo24.it
Capel Curig, Gran Bretagna (3305): Temperatura & dewpoint: 31.05.2020 08:00:00 - 06.06.2020 08:00:00 (BST)Capel Curig, Gran Bretagna (3305): Temperatura -20cm & Temperatura -100cm: 31.05.2020 08:00:00 - 06.06.2020 08:00:00 (BST)Capel Curig, Gran Bretagna (3305): velocità del vento & gusts: 31.05.2020 08:00:00 - 06.06.2020 08:00:00 (BST)Capel Curig, Gran Bretagna (3305): direzione del vento: 31.05.2020 08:00:00 - 06.06.2020 08:00:00 (BST)Capel Curig, Gran Bretagna (3305): reduced air pressure: 31.05.2020 08:00:00 - 06.06.2020 08:00:00 (BST)Capel Curig, Gran Bretagna (3305): visibility: 31.05.2020 08:00:00 - 06.06.2020 08:00:00 (BST)Capel Curig, Gran Bretagna (3305): precipitazioni: 31.05.2020 08:00:00 - 06.06.2020 08:00:00 (BST)
Data & Tempo tt [°C] td [°C] tt -20cm [°C] tt -100cm [°C] ff [km/h] ff [kn] fx [km/h] fx [kn] dd ppp [hPa] vv [km] rr [mm]
06.06.2020 08:00:00 - - - - - - - - - - - -
06.06.2020 07:00:00 6,8 5,7 - - 50 27 70 38 OSO 996,3 - 4,8
06.06.2020 06:00:00 6,3 5,0 - - 48 26 68 37 OSO 996,8 - 2,8
06.06.2020 05:00:00 6,0 4,6 - - 48 26 68 37 OSO 997,6 - 1,4
06.06.2020 04:00:00 5,9 4,3 - - 42 23 68 37 OSO 997,8 - 1,2
06.06.2020 03:00:00 6,6 3,3 - - 44 24 68 37 OSO 998,2 - 0,0
06.06.2020 02:00:00 6,6 2,9 - - 42 23 67 36 OSO 999,0 - 0,0
06.06.2020 01:00:00 6,6 2,9 - - 29 16 61 33 OSO 999,4 - 0,0
06.06.2020 00:00:00 6,8 2,6 - - 26 14 52 28 OSO 999,9 - 0,0
05.06.2020 23:00:00 7,6 1,4 - - 21 11 67 36 ONO 1000,1 - 0,0
05.06.2020 22:00:00 8,0 1,0 - - 31 17 67 36 O 999,9 - 0,0
05.06.2020 21:00:00 8,6 2,5 - - 16 9 57 31 O 999,5 - 0,0
05.06.2020 20:00:00 8,8 2,6 - - 29 16 70 38 O 999,3 - 0,0
05.06.2020 19:00:00 8,7 3,1 - - 22 12 54 29 ONO 999,4 - 0,8
05.06.2020 18:00:00 9,9 1,5 - - 28 15 59 32 O 999,2 - 0,0
05.06.2020 17:00:00 10,6 2,3 - - 28 15 50 27 O 999,4 - 0,0
05.06.2020 16:00:00 9,9 4,4 - - 26 14 50 27 OSO 999,4 - 0,6
05.06.2020 15:00:00 10,8 2,9 - - 28 15 55 30 O 999,6 - 0,0
05.06.2020 14:00:00 10,0 4,7 - - 31 17 54 29 O 999,7 - 0,4
05.06.2020 13:00:00 8,0 5,2 - - 21 11 - - O 999,6 - 1,4
05.06.2020 12:00:00 10,0 2,6 - - 13 7 54 29 N 999,4 - 0,0
05.06.2020 11:00:00 9,2 2,9 - - 24 13 - - ONO 999,4 - 0,0
05.06.2020 10:00:00 9,7 3,2 12,7 12,0 22 12 48 26 NO 999,0 - 0,0
05.06.2020 09:00:00 9,1 2,7 - - 15 8 - - O 999,2 - 0,0
05.06.2020 08:00:00 8,5 2,7 - - 13 7 70 38 O 999,2 - 0,0
05.06.2020 07:00:00 8,0 3,1 - - 29 16 57 31 O 999,0 - 0,0
05.06.2020 06:00:00 8,2 3,3 - - 21 11 67 36 O 998,7 - 0,0
05.06.2020 05:00:00 8,3 3,1 - - 35 19 72 39 O 998,7 - 0,0
05.06.2020 04:00:00 8,8 3,7 - - 34 18 67 36 O 998,7 - 0,0
05.06.2020 03:00:00 8,9 2,9 - - 41 22 76 41 O 999,1 - 0,0
05.06.2020 02:00:00 9,2 3,7 - - 35 19 67 36 O 999,6 - 0,0
05.06.2020 01:00:00 9,6 4,5 - - 18 10 54 29 O 1000,2 - 0,0
05.06.2020 00:00:00 10,0 4,8 - - 24 13 59 32 OSO 1000,4 - 0,0
04.06.2020 23:00:00 10,7 5,5 - - 11 6 52 28 SSE 1000,6 - 0,0
04.06.2020 22:00:00 11,4 6,0 - - 11 6 - - O 1000,6 - 0,0
04.06.2020 21:00:00 11,5 8,9 - - 9 5 - - SO 1000,8 - 0,0
04.06.2020 20:00:00 10,9 9,0 - - 18 10 - - OSO 1001,2 - 0,0
04.06.2020 19:00:00 11,3 8,1 - - 21 11 - - SO 1001,7 - 0,0
04.06.2020 18:00:00 11,0 8,2 - - 24 13 - - OSO 1002,0 - 0,0
04.06.2020 17:00:00 10,8 8,2 - - 21 11 - - OSO 1002,6 - 0,0
04.06.2020 16:00:00 10,7 8,2 - - 26 14 - - OSO 1003,3 - 0,2
04.06.2020 15:00:00 10,2 8,8 - - 26 14 - - OSO 1004,0 - 0,4
04.06.2020 14:00:00 10,2 8,7 - - 21 11 - - OSO 1004,4 - 0,6
04.06.2020 13:00:00 10,0 8,7 - - 18 10 - - OSO 1005,2 - 0,2
04.06.2020 12:00:00 9,4 8,1 - - 13 7 - - SSO 1005,7 - 0,6
04.06.2020 11:00:00 8,9 7,4 - - 16 9 - - SO 1006,3 - 0,0
04.06.2020 10:00:00 9,4 4,5 13,2 12,0 11 6 - - OSO 1007,0 - 0,0
04.06.2020 09:00:00 9,8 3,8 - - 13 7 - - N 1007,4 - 0,0
04.06.2020 08:00:00 9,3 4,8 - - 16 9 - - O 1008,0 - 0,0
04.06.2020 07:00:00 9,2 5,5 - - 13 7 - - NO 1008,1 - 0,0
04.06.2020 06:00:00 9,2 6,4 - - 11 6 - - O 1008,4 - 0,0
04.06.2020 05:00:00 9,1 6,5 - - 13 7 - - O 1008,8 - 0,0
04.06.2020 04:00:00 8,9 7,0 - - 4 2 - - S 1009,5 - 0,2
04.06.2020 03:00:00 9,8 6,4 - - 8 4 - - ENE 1009,9 - 0,0
04.06.2020 02:00:00 10,0 6,8 - - 15 8 - - ENE 1010,9 - 0,0
04.06.2020 01:00:00 9,7 7,2 - - 18 10 54 29 ENE 1011,8 - 0,2
04.06.2020 00:00:00 10,4 5,7 - - 15 8 - - NE 1012,1 - 0,0
03.06.2020 23:00:00 9,9 6,0 - - 15 8 - - E 1012,5 - 0,0
03.06.2020 22:00:00 10,0 6,5 - - 13 7 - - NE 1012,8 - 0,0
03.06.2020 21:00:00 10,2 7,6 - - 16 9 - - ENE 1012,9 - 0,0
03.06.2020 20:00:00 9,9 8,0 - - 29 16 48 26 ENE 1013,0 - 0,0
03.06.2020 19:00:00 10,3 8,3 - - 22 12 - - ENE 1012,6 - 0,0
03.06.2020 18:00:00 10,1 8,7 - - 29 16 - - NE 1012,9 - 0,0
03.06.2020 17:00:00 10,4 9,2 - - 21 11 50 27 ENE 1013,3 - 0,2
03.06.2020 16:00:00 9,9 8,5 - - 31 17 48 26 ENE 1013,4 - 0,2
03.06.2020 15:00:00 10,3 8,9 - - 31 17 52 28 NE 1012,9 - 0,0
03.06.2020 14:00:00 10,7 9,4 - - 37 20 54 29 NE 1012,6 - 0,4
03.06.2020 13:00:00 10,7 9,5 - - 34 18 48 26 NE 1012,6 - 1,0
03.06.2020 12:00:00 11,4 10,0 - - 37 20 52 28 NE 1012,0 - 0,0
03.06.2020 11:00:00 11,1 9,9 - - 39 21 52 28 NE 1011,6 - 0,4
03.06.2020 10:00:00 11,9 11,0 14,0 12,0 26 14 - - ENE 1011,4 - 1,0
03.06.2020 09:00:00 12,3 10,3 - - 8 4 - - N 1011,4 - 0,0
03.06.2020 08:00:00 12,2 10,5 - - 11 6 - - NNO 1011,6 - 0,4
03.06.2020 07:00:00 12,8 11,0 - - 9 5 - - E 1011,6 - 0,4
03.06.2020 06:00:00 13,1 10,9 - - 15 8 - - ENE 1012,0 - 1,2
03.06.2020 05:00:00 13,1 11,1 - - 11 6 - - ENE 1012,1 - 0,0
03.06.2020 04:00:00 13,3 11,3 - - 11 6 - - E 1012,4 - 0,0
03.06.2020 03:00:00 13,9 10,3 - - 15 8 - - SO 1013,2 - 0,0
03.06.2020 02:00:00 13,0 10,7 - - 5 3 - - OSO 1014,0 - 0,4
03.06.2020 01:00:00 14,0 9,9 - - 8 4 - - OSO 1014,7 - 0,2
03.06.2020 00:00:00 15,7 7,8 - - 15 8 - - OSO 1015,2 - 0,0
02.06.2020 23:00:00 15,4 8,0 - - 8 4 - - SO 1015,8 - 0,0
02.06.2020 22:00:00 16,0 7,2 - - 2 1 - - SO 1016,1 - 0,0
02.06.2020 21:00:00 17,4 7,5 - - 11 6 - - SO 1016,2 - 0,0
02.06.2020 20:00:00 20,5 8,0 - - 5 3 - - N 1016,1 - 0,0
02.06.2020 19:00:00 20,9 6,5 - - 8 4 - - O 1016,8 - 0,0
02.06.2020 18:00:00 20,7 7,4 - - 13 7 - - O 1017,5 - 0,0
02.06.2020 17:00:00 21,7 8,2 - - 13 7 - - OSO 1018,1 - 0,0
02.06.2020 16:00:00 21,6 7,4 - - 11 6 - - N 1018,8 - 0,0
02.06.2020 15:00:00 21,7 6,9 - - 8 4 - - N 1019,4 - 0,0
02.06.2020 14:00:00 21,9 7,9 - - 9 5 - - NNO 1019,9 - 0,0
02.06.2020 13:00:00 21,6 8,3 - - 11 6 - - NNO 1020,3 - 0,0
02.06.2020 12:00:00 21,4 8,7 - - 22 12 - - ENE 1020,7 - 0,0
02.06.2020 11:00:00 21,3 8,5 - - 21 11 - - ENE 1021,1 - 0,0
02.06.2020 10:00:00 21,2 8,6 - - 15 8 - - E 1021,4 - -
02.06.2020 09:00:00 18,5 11,7 - - 2 1 - - E 1022,0 - -
02.06.2020 08:00:00 12,1 9,6 - - 2 1 - - N 1022,9 - 0,0
02.06.2020 07:00:00 8,8 7,6 - - 2 1 - - O 1023,6 40 0,0
02.06.2020 06:00:00 7,3 6,2 - - 2 1 - - NNE 1023,6 - 0,0
02.06.2020 05:00:00 7,6 6,4 - - 2 1 - - OSO 1023,8 - 0,0
02.06.2020 04:00:00 7,7 6,0 - - 0 0 - - N 1024,2 - 0,0
02.06.2020 03:00:00 8,7 6,8 - - 2 1 - - O 1024,7 - 0,0
02.06.2020 02:00:00 8,7 6,2 - - 2 1 - - NO 1024,8 - 0,0
02.06.2020 01:00:00 10,8 7,7 - - 5 3 - - ENE 1024,7 - 0,0
02.06.2020 00:00:00 11,8 7,7 - - 5 3 - - NE 1025,0 - 0,0
01.06.2020 23:00:00 13,5 8,1 - - 5 3 - - ENE 1025,0 50 0,0
01.06.2020 22:00:00 14,6 8,4 - - 9 5 - - ENE 1024,8 45 0,0
01.06.2020 21:00:00 16,3 6,6 - - 5 3 - - NE 1024,2 50 0,0
01.06.2020 20:00:00 17,8 6,9 - - 13 7 - - ENE 1023,9 - 0,0
01.06.2020 19:00:00 19,2 7,7 - - 15 8 - - ENE 1024,0 - 0,0
01.06.2020 18:00:00 20,1 8,0 - - 18 10 - - NE 1023,8 - 0,0
01.06.2020 17:00:00 20,6 7,7 - - 22 12 - - NE 1023,8 40 0,0
01.06.2020 16:00:00 21,3 7,8 - - 21 11 - - NE 1023,9 35 0,0
01.06.2020 15:00:00 21,3 8,2 - - 16 9 - - ENE 1024,2 40 0,0
01.06.2020 14:00:00 20,6 6,2 - - 18 10 - - ENE 1024,6 - 0,0
01.06.2020 13:00:00 20,1 4,4 - - 18 10 - - NE 1024,9 - 0,0
01.06.2020 12:00:00 19,5 6,8 - - 22 12 - - NE 1025,0 - 0,0
01.06.2020 11:00:00 18,5 6,5 - - 13 7 - - ENE 1025,4 - 0,0
01.06.2020 10:00:00 17,6 6,8 13,4 11,7 18 10 - - ENE 1025,8 - 0,0
01.06.2020 09:00:00 16,2 7,1 - - 16 9 - - NE 1026,3 - 0,0
01.06.2020 08:00:00 14,5 6,2 - - 16 9 - - NE 1026,3 - 0,0
01.06.2020 07:00:00 11,1 9,1 - - 5 3 - - NE 1026,3 50 0,0
01.06.2020 06:00:00 6,4 4,4 - - 0 0 - - N 1026,6 - 0,0
01.06.2020 05:00:00 6,6 4,3 - - 2 1 - - E 1026,4 - 0,0
01.06.2020 04:00:00 8,8 5,4 - - 2 1 - - NNE 1026,3 - 0,0
01.06.2020 03:00:00 10,7 5,9 - - 4 2 - - NNE 1025,8 - 0,0
01.06.2020 02:00:00 12,3 6,8 - - 5 3 - - NE 1025,6 - 0,0
01.06.2020 01:00:00 14,5 6,5 - - 16 9 - - ENE 1025,4 - 0,0
01.06.2020 00:00:00 13,5 8,8 - - 9 5 - - ENE 1025,3 - 0,0
31.05.2020 23:00:00 13,8 8,3 - - 4 2 - - ENE 1024,7 - 0,0
31.05.2020 22:00:00 16,9 8,3 - - 4 2 - - E 1023,9 - 0,0
31.05.2020 21:00:00 19,0 7,7 - - 9 5 - - E 1023,1 - 0,0
31.05.2020 20:00:00 21,3 6,6 - - 13 7 - - ENE 1022,5 - 0,0
31.05.2020 19:00:00 21,8 6,6 - - 16 9 - - E 1022,2 - 0,0
31.05.2020 18:00:00 22,3 5,8 - - 16 9 - - ENE 1022,1 - 0,0
31.05.2020 17:00:00 22,6 6,9 - - 15 8 - - E 1022,0 - 0,0
31.05.2020 16:00:00 22,1 5,8 - - 18 10 - - E 1022,2 - 0,0
31.05.2020 15:00:00 22,6 4,4 - - 11 6 - - E 1022,3 - 0,0
31.05.2020 14:00:00 21,7 4,0 - - 16 9 - - SE 1022,7 - 0,0
31.05.2020 13:00:00 21,0 8,2 - - 21 11 - - ENE 1022,8 - 0,0
31.05.2020 12:00:00 20,3 9,0 - - 16 9 - - ENE 1023,1 29 0,0
31.05.2020 11:00:00 18,8 6,6 - - 15 8 - - ENE 1023,4 27 0,0
31.05.2020 10:00:00 17,3 6,8 13,2 11,4 22 12 - - ENE 1023,6 21 0,0
31.05.2020 09:00:00 15,8 7,1 - - 21 11 - - ENE 1023,9 35 0,0
31.05.2020 08:00:00 14,7 7,7 - - 8 4 - - E 1024,0 29 0,0

tt = Temperatura
td = dewpoint
tt -20cm = Temperatura -20cm
tt -100cm = Temperatura -100cm
ff = velocità del vento
fx = gusts
dd = direzione del vento
ppp = reduced air pressure
vv = visibility
rr = precipitazioni

Stazioni seguenti

WeatherPro
AMSI
MeteoEarth